This is the latest recevied weather packets stored in our database for station/object KA3WVU. If no packets are shown the sender has not sent any weather packets the latest 10 day(s).
| Time | Temp. | Humidity | Pressure | Rain* | Wind** | Luminosity | Snow |
|---|---|---|---|---|---|---|---|
| 1777151556 | 9.44° C | 99% | 1009.7 hPa | 0 mm | - | 30 W/m² | - |
| 1777151252 | 8.89° C | 99% | 1009.5 hPa | 0 mm | - | 31 W/m² | - |
| 1777150948 | 9.44° C | 99% | 1009.5 hPa | 0 mm | - | 34 W/m² | - |
| 1777150642 | 9.44° C | 99% | 1009.5 hPa | 0 mm | - | 45 W/m² | - |
| 1777150339 | 9.44° C | 99% | 1009.1 hPa | 0 mm | - | 43 W/m² | - |
| 1777150036 | 9.44° C | 99% | 1009.4 hPa | 0 mm | - | 54 W/m² | - |
| 1777149732 | 9.44° C | 99% | 1009.1 hPa | 0 mm | - | 55 W/m² | - |
| 1777149429 | 9.44° C | 99% | 1008.9 hPa | 0 mm | - | 49 W/m² | - |
| 1777149124 | 9.44° C | 99% | 1009.3 hPa | 0 mm | - | 36 W/m² | - |
| 1777148819 | 9.44° C | 99% | 1009.1 hPa | 0 mm | - | 27 W/m² | - |
| 1777148516 | 9.44° C | 99% | 1008.8 hPa | 0 mm | - | 36 W/m² | - |
| 1777148211 | 8.89° C | 99% | 1008.8 hPa | 0 mm | - | 27 W/m² | - |
| 1777147908 | 9.44° C | 99% | 1008.8 hPa | 0 mm | - | 37 W/m² | - |
| 1777147599 | 9.44° C | 99% | 1009 hPa | 0 mm | - | 29 W/m² | - |
| 1777147293 | 9.44° C | 99% | 1008.7 hPa | 0 mm | - | 37 W/m² | - |
| 1777146989 | 9.44° C | 99% | 1008.9 hPa | 0 mm | - | 41 W/m² | - |
| 1777146686 | 9.44° C | 99% | 1008.7 hPa | 0 mm | - | 47 W/m² | - |
| 1777146381 | 9.44° C | 99% | 1008.7 hPa | 0 mm | - | 57 W/m² | - |
| 1777146078 | 9.44° C | 99% | 1008.7 hPa | 0 mm | - | 66 W/m² | - |
| 1777145774 | 9.44° C | 99% | 1008.8 hPa | 0 mm | - | 46 W/m² | - |
| 1777145470 | 9.44° C | 99% | 1008.9 hPa | 0 mm | - | 49 W/m² | - |
| 1777145170 | 8.89° C | 99% | 1008.9 hPa | 0 mm | - | 41 W/m² | - |
| 1777144866 | 9.44° C | 99% | 1009 hPa | 0 mm | - | 38 W/m² | - |
| 1777144564 | 8.89° C | 99% | 1008.8 hPa | 0 mm | - | 39 W/m² | - |
| 1777144261 | 8.89° C | 99% | 1008.8 hPa | 0 mm | - | 42 W/m² | - |
* Rain latest hour (hover to see other rain measurements)
** Current wind speed in m/s (hover to see current wind gust speed)